N301FB KMEM-KIAD

Flight info

Callsign N301FB
Flight time 1h 46m
Altitude 37000
Route GOETZ7 DIYAB HITMN Q34 SITTR GIBBZ5
Aircraft CRJ9/M-SDFGIRWY/S

Departure

Time 2026-05-06 02:05
Airport Memphis International Airport (KMEM)

Arrival

Time 2026-05-06 03:51
Airport Washington Dulles International Airport (KIAD)
Time Latitude Longitude Altitude Speed Heading
2026-05-06 01:35 35.04164 -89.98181 308 ft 0 kts 351°
2026-05-06 01:51 35.04162 -89.98181 308 ft 0 kts 351°
2026-05-06 01:52 35.04150 -89.98178 308 ft 2 kts 351°
2026-05-06 01:52 35.04134 -89.98175 308 ft 2 kts 354°
2026-05-06 01:52 35.04119 -89.98182 308 ft 2 kts 49°
2026-05-06 01:52 35.04114 -89.98197 308 ft 0 kts 94°
2026-05-06 01:57 35.04113 -89.98186 308 ft 3 kts 95°
2026-05-06 01:57 35.04107 -89.98158 308 ft 4 kts 131°
2026-05-06 01:57 35.04075 -89.98137 308 ft 7 kts 153°
2026-05-06 01:57 35.04015 -89.98098 310 ft 12 kts 149°
2026-05-06 01:58 35.03931 -89.98038 309 ft 16 kts 155°
2026-05-06 01:58 35.03889 -89.97929 309 ft 16 kts 90°
2026-05-06 01:58 35.03890 -89.97777 308 ft 21 kts 85°
2026-05-06 01:58 35.03913 -89.97727 310 ft 5 kts 354°
2026-05-06 01:59 35.03951 -89.97734 309 ft 6 kts 355°
2026-05-06 01:59 35.04001 -89.97734 311 ft 8 kts
2026-05-06 01:59 35.04060 -89.97731 313 ft 9 kts
2026-05-06 01:59 35.04132 -89.97733 315 ft 12 kts 349°
2026-05-06 02:00 35.04227 -89.97742 314 ft 16 kts
2026-05-06 02:00 35.04356 -89.97742 314 ft 20 kts 357°
2026-05-06 02:00 35.04509 -89.97750 317 ft 24 kts 358°
2026-05-06 02:00 35.04693 -89.97756 311 ft 29 kts 359°
2026-05-06 02:01 35.04901 -89.97759 312 ft 19 kts 360°
2026-05-06 02:01 35.05015 -89.97758 313 ft 18 kts
2026-05-06 02:01 35.05153 -89.97762 315 ft 21 kts 359°
2026-05-06 02:01 35.05303 -89.97766 320 ft 22 kts 352°
2026-05-06 02:02 35.05442 -89.97742 323 ft 14 kts 69°
2026-05-06 02:02 35.05443 -89.97730 324 ft 0 kts 88°
2026-05-06 02:03 35.05444 -89.97723 324 ft 2 kts 87°
2026-05-06 02:03 35.05445 -89.97689 325 ft 6 kts 87°
2026-05-06 02:03 35.05429 -89.97633 324 ft 9 kts 139°
2026-05-06 02:04 35.05356 -89.97614 324 ft 13 kts 180°
2026-05-06 02:04 35.05287 -89.97614 321 ft 0 kts 180°
2026-05-06 02:05 35.05073 -89.97605 314 ft 74 kts 177°
2026-05-06 02:05 35.04298 -89.97572 325 ft 143 kts 181°
2026-05-06 02:05 35.03289 -89.97587 979 ft 140 kts 183°
2026-05-06 02:05 35.02488 -89.97640 2225 ft 103 kts 188°
2026-05-06 02:06 35.01591 -89.97549 2307 ft 156 kts 179°
2026-05-06 02:06 35.00489 -89.97382 3077 ft 156 kts 179°
2026-05-06 02:06 34.99473 -89.97460 4057 ft 139 kts 194°
2026-05-06 02:06 34.98506 -89.97419 4745 ft 154 kts 161°
2026-05-06 02:07 34.97651 -89.96538 5329 ft 165 kts 149°
2026-05-06 02:07 34.96603 -89.95844 5654 ft 182 kts 164°
2026-05-06 02:07 34.95313 -89.95297 5735 ft 210 kts 168°
2026-05-06 02:07 34.93837 -89.94527 5716 ft 263 kts 146°
2026-05-06 02:08 34.92743 -89.92622 6470 ft 287 kts 110°
2026-05-06 02:08 34.92491 -89.90166 7366 ft 297 kts 92°
2026-05-06 02:08 34.92476 -89.87631 8277 ft 303 kts 91°
2026-05-06 02:08 34.92481 -89.85033 9206 ft 309 kts 88°
2026-05-06 02:09 34.93015 -89.82491 10088 ft 314 kts 61°
2026-05-06 02:09 34.94124 -89.80190 10969 ft 317 kts 54°
2026-05-06 02:09 34.95334 -89.77930 11842 ft 320 kts 53°
2026-05-06 02:09 34.96546 -89.75642 12721 ft 324 kts 54°
2026-05-06 02:10 34.97747 -89.73295 13599 ft 328 kts 54°
2026-05-06 02:10 34.98902 -89.70924 14369 ft 332 kts 56°
2026-05-06 02:10 35.00073 -89.68430 15137 ft 338 kts 56°
2026-05-06 02:10 35.01251 -89.65922 15569 ft 354 kts 56°
2026-05-06 02:11 35.02513 -89.63235 15807 ft 376 kts 57°
2026-05-06 02:11 35.03853 -89.60379 15926 ft 400 kts 57°
2026-05-06 02:11 35.05276 -89.57341 16000 ft 423 kts 57°
2026-05-06 02:11 35.06779 -89.54145 16025 ft 446 kts 57°
2026-05-06 02:12 35.08339 -89.50813 16298 ft 458 kts 57°
2026-05-06 02:12 35.09883 -89.47496 17580 ft 443 kts 57°
2026-05-06 02:12 35.10919 -89.45280 18064 ft 446 kts 57°
2026-05-06 02:12 35.12467 -89.41980 18621 ft 450 kts 57°
2026-05-06 02:13 35.14025 -89.38643 19137 ft 454 kts 56°
2026-05-06 02:13 35.15593 -89.35273 19657 ft 458 kts 57°
2026-05-06 02:13 35.17183 -89.31868 20138 ft 463 kts 56°
2026-05-06 02:13 35.18781 -89.28428 20625 ft 466 kts 56°
2026-05-06 02:14 35.20390 -89.24971 21099 ft 470 kts 56°
2026-05-06 02:14 35.21946 -89.21434 21578 ft 476 kts 63°
2026-05-06 02:14 35.23042 -89.17633 21991 ft 483 kts 71°
2026-05-06 02:14 35.23969 -89.13663 22411 ft 487 kts 71°
2026-05-06 02:15 35.24941 -89.09680 22851 ft 489 kts 67°
2026-05-06 02:15 35.26286 -89.05859 23259 ft 489 kts 60°
2026-05-06 02:15 35.27825 -89.02134 23614 ft 492 kts 59°
2026-05-06 02:15 35.29374 -88.98386 23971 ft 495 kts 60°
2026-05-06 02:16 35.30856 -88.94560 24310 ft 499 kts 62°
2026-05-06 02:16 35.32313 -88.90694 24639 ft 501 kts 61°
2026-05-06 02:16 35.33783 -88.86821 24944 ft 504 kts 61°
2026-05-06 02:16 35.35264 -88.82916 25332 ft 505 kts 61°
2026-05-06 02:17 35.36743 -88.79008 25639 ft 507 kts 61°
2026-05-06 02:17 35.38228 -88.75083 25933 ft 509 kts 61°
2026-05-06 02:17 35.38888 -88.73331 26054 ft 510 kts 61°
2026-05-06 02:17 35.40203 -88.69798 25982 ft 501 kts 62°
2026-05-06 02:18 35.41625 -88.65936 25703 ft 491 kts 62°
2026-05-06 02:18 35.43011 -88.62172 25660 ft 477 kts 62°
2026-05-06 02:18 35.44373 -88.58511 25605 ft 466 kts 61°
2026-05-06 02:18 35.45714 -88.54932 25547 ft 457 kts 60°
2026-05-06 02:19 35.47037 -88.51416 25488 ft 450 kts 61°
2026-05-06 02:19 35.48316 -88.47996 25438 ft 444 kts 61°
2026-05-06 02:19 35.49607 -88.44560 25420 ft 438 kts 61°
2026-05-06 02:19 35.50871 -88.41182 25383 ft 433 kts 61°
2026-05-06 02:20 35.53352 -88.34528 25320 ft 424 kts 61°
2026-05-06 02:20 35.54576 -88.31247 25285 ft 421 kts 61°
2026-05-06 02:20 35.55786 -88.27988 25262 ft 418 kts 61°
2026-05-06 02:21 35.56990 -88.24753 25247 ft 415 kts 61°
2026-05-06 02:21 35.58186 -88.21533 25222 ft 413 kts 61°
2026-05-06 02:21 35.59353 -88.18390 25707 ft 393 kts 60°
2026-05-06 02:21 35.60464 -88.15416 26370 ft 372 kts 60°
2026-05-06 02:22 35.61510 -88.12602 27023 ft 353 kts 59°
2026-05-06 02:22 35.62500 -88.09938 27655 ft 333 kts 59°
2026-05-06 02:22 35.63449 -88.07396 28363 ft 321 kts 59°
2026-05-06 02:22 35.64341 -88.04985 29064 ft 307 kts 58°
2026-05-06 02:23 35.65223 -88.02612 29473 ft 306 kts 58°
2026-05-06 02:23 35.66128 -88.00184 29428 ft 320 kts 58°
2026-05-06 02:23 35.67084 -87.97649 29422 ft 332 kts 58°
2026-05-06 02:23 35.68053 -87.95086 29886 ft 326 kts 58°
2026-05-06 02:24 35.68982 -87.92593 30450 ft 315 kts 57°
2026-05-06 02:24 35.69879 -87.90135 30691 ft 317 kts 57°
2026-05-06 02:24 35.70809 -87.87607 30579 ft 332 kts 57°
2026-05-06 02:25 35.72763 -87.82329 31049 ft 334 kts 57°
2026-05-06 02:25 35.73683 -87.79750 31584 ft 325 kts 58°
2026-05-06 02:25 35.74595 -87.77204 31737 ft 329 kts 57°
2026-05-06 02:25 35.75545 -87.74580 31624 ft 343 kts 58°
2026-05-06 02:26 35.76535 -87.71864 31702 ft 349 kts 58°
2026-05-06 02:26 35.77516 -87.69157 32174 ft 341 kts 58°
2026-05-06 02:26 35.78472 -87.66537 32634 ft 333 kts 57°
2026-05-06 02:27 35.80452 -87.61234 32568 ft 352 kts 56°
2026-05-06 02:27 35.81460 -87.58567 32695 ft 356 kts 57°
2026-05-06 02:27 35.82458 -87.55819 33162 ft 347 kts 57°
2026-05-06 02:27 35.83413 -87.53122 33573 ft 341 kts 57°
2026-05-06 02:28 35.84371 -87.50427 33597 ft 348 kts 56°
2026-05-06 02:28 35.85384 -87.47652 33459 ft 360 kts 56°
2026-05-06 02:28 35.86425 -87.44830 33593 ft 362 kts 56°
2026-05-06 02:28 35.87443 -87.42023 34027 ft 354 kts 56°
2026-05-06 02:29 35.88425 -87.39268 34331 ft 349 kts 56°
2026-05-06 02:29 35.90454 -87.33683 34238 ft 366 kts 55°
2026-05-06 02:29 35.91513 -87.30808 34360 ft 368 kts 56°
2026-05-06 02:30 35.92554 -87.27939 34645 ft 364 kts 56°
2026-05-06 02:30 35.93567 -87.25096 34909 ft 361 kts 56°
2026-05-06 02:30 35.94581 -87.22233 34860 ft 370 kts 56°
2026-05-06 02:30 35.95656 -87.19262 34607 ft 386 kts 56°
2026-05-06 02:31 35.96785 -87.16204 34502 ft 397 kts 56°
2026-05-06 02:31 35.97932 -87.13052 34448 ft 408 kts 57°
2026-05-06 02:31 35.99086 -87.09804 34406 ft 417 kts 57°
2026-05-06 02:32 36.01473 -87.03113 34377 ft 434 kts 58°
2026-05-06 02:32 36.03950 -86.96162 34351 ft 450 kts 58°
2026-05-06 02:33 36.06510 -86.88953 34364 ft 465 kts 59°
2026-05-06 02:33 36.07378 -86.86517 34357 ft 470 kts 59°
2026-05-06 02:33 36.10492 -86.77707 34373 ft 487 kts 59°
2026-05-06 02:34 36.11856 -86.73848 34370 ft 493 kts 59°
2026-05-06 02:34 36.14630 -86.65969 34357 ft 507 kts 60°
2026-05-06 02:35 36.17280 -86.57759 34363 ft 519 kts 62°
2026-05-06 02:35 36.19986 -86.49385 34374 ft 529 kts 62°
2026-05-06 02:36 36.22740 -86.40855 34369 ft 537 kts 63°
2026-05-06 02:36 36.25528 -86.32198 34348 ft 544 kts 63°
2026-05-06 02:37 36.28343 -86.23438 34310 ft 549 kts 63°
2026-05-06 02:37 36.31152 -86.14678 34543 ft 549 kts 65°
2026-05-06 02:38 36.33870 -86.05925 34387 ft 541 kts 65°
2026-05-06 02:38 36.36575 -85.97275 34318 ft 535 kts 65°
2026-05-06 02:39 36.39291 -85.88714 34281 ft 531 kts 64°
2026-05-06 02:39 36.41992 -85.80173 34276 ft 529 kts 65°
2026-05-06 02:40 36.44682 -85.71668 34281 ft 529 kts 65°
2026-05-06 02:40 36.47356 -85.63155 34286 ft 529 kts 65°
2026-05-06 02:41 36.50027 -85.54643 34286 ft 529 kts 65°
2026-05-06 02:41 36.52662 -85.46220 35102 ft 510 kts 64°
2026-05-06 02:41 36.53934 -85.42163 35726 ft 498 kts 64°
2026-05-06 02:42 36.55157 -85.38239 36294 ft 488 kts 64°
2026-05-06 02:42 36.56379 -85.34319 36634 ft 485 kts 64°
2026-05-06 02:42 36.57598 -85.30415 36805 ft 485 kts 64°
2026-05-06 02:43 36.60037 -85.22545 36945 ft 490 kts 64°
2026-05-06 02:43 36.62503 -85.14580 36997 ft 496 kts 64°
2026-05-06 02:44 36.64986 -85.06515 37052 ft 502 kts 64°
2026-05-06 02:44 36.67503 -84.98339 37057 ft 508 kts 65°
2026-05-06 02:45 36.70030 -84.90063 37015 ft 512 kts 65°
2026-05-06 02:45 36.72574 -84.81745 37007 ft 516 kts 65°
2026-05-06 02:46 36.75126 -84.73364 36995 ft 518 kts 65°
2026-05-06 02:46 36.77684 -84.64943 37005 ft 521 kts 65°
2026-05-06 02:47 36.80254 -84.56465 36996 ft 523 kts 65°
2026-05-06 02:47 36.82820 -84.47971 37001 ft 524 kts 65°
2026-05-06 02:48 36.85385 -84.39438 36993 ft 525 kts 65°
2026-05-06 02:48 36.87951 -84.30896 36992 ft 526 kts 66°
2026-05-06 02:49 36.90506 -84.22336 36984 ft 526 kts 66°
2026-05-06 02:49 36.93065 -84.13759 36979 ft 526 kts 66°
2026-05-06 02:50 36.95613 -84.05191 36979 ft 526 kts 66°
2026-05-06 02:50 36.98144 -83.96666 36980 ft 526 kts 66°
2026-05-06 02:51 37.00677 -83.88090 36977 ft 526 kts 66°
2026-05-06 02:51 37.03204 -83.79504 36980 ft 525 kts 66°
2026-05-06 02:52 37.05745 -83.70862 36986 ft 525 kts 67°
2026-05-06 02:52 37.08237 -83.62335 36993 ft 525 kts 67°
2026-05-06 02:53 37.10743 -83.53747 36987 ft 525 kts 67°
2026-05-06 02:53 37.13245 -83.45161 36980 ft 524 kts 67°
2026-05-06 02:54 37.15729 -83.36582 36978 ft 523 kts 67°
2026-05-06 02:54 37.18203 -83.28017 36981 ft 523 kts 68°
2026-05-06 02:55 37.20673 -83.19443 36976 ft 522 kts 68°
2026-05-06 02:55 37.23139 -83.10866 36970 ft 522 kts 68°
2026-05-06 02:56 37.25594 -83.02291 36968 ft 522 kts 68°
2026-05-06 02:56 37.28046 -82.93713 36990 ft 522 kts 68°
2026-05-06 02:57 37.30486 -82.85129 36977 ft 522 kts 68°
2026-05-06 02:57 37.32905 -82.76602 36987 ft 522 kts 68°
2026-05-06 02:58 37.35337 -82.67998 37004 ft 522 kts 68°
2026-05-06 02:58 37.37331 -82.60913 37012 ft 522 kts 68°
2026-05-06 02:59 37.39755 -82.52301 37019 ft 522 kts 68°
2026-05-06 02:59 37.42164 -82.43692 36962 ft 522 kts 68°
2026-05-06 03:00 37.44575 -82.35082 37030 ft 522 kts 69°
2026-05-06 03:00 37.46967 -82.26458 37041 ft 522 kts 69°
2026-05-06 03:01 37.49364 -82.17836 37013 ft 522 kts 69°
2026-05-06 03:01 37.51748 -82.09210 37023 ft 522 kts 69°
2026-05-06 03:02 37.54128 -82.00572 37022 ft 521 kts 69°
2026-05-06 03:02 37.56503 -81.91932 37031 ft 522 kts 69°
2026-05-06 03:03 37.58867 -81.83292 37030 ft 522 kts 69°
2026-05-06 03:03 37.61231 -81.74640 37030 ft 522 kts 69°
2026-05-06 03:04 37.63585 -81.65988 37026 ft 522 kts 69°
2026-05-06 03:04 37.65928 -81.57329 37065 ft 521 kts 69°
2026-05-06 03:05 37.68268 -81.48686 37063 ft 520 kts 69°
2026-05-06 03:05 37.70604 -81.40060 37069 ft 519 kts 69°
2026-05-06 03:06 37.72923 -81.31491 37079 ft 518 kts 69°
2026-05-06 03:06 37.75252 -81.22887 37095 ft 518 kts 69°
2026-05-06 03:07 37.77582 -81.14266 37096 ft 518 kts 69°
2026-05-06 03:07 37.79909 -81.05656 37100 ft 518 kts 69°
2026-05-06 03:08 37.82234 -80.97057 37118 ft 512 kts 69°
2026-05-06 03:08 37.84510 -80.88613 37112 ft 503 kts 70°
2026-05-06 03:08 37.85650 -80.84375 36310 ft 515 kts 69°
2026-05-06 03:09 37.86816 -80.80050 35587 ft 524 kts 69°
2026-05-06 03:09 37.88003 -80.75658 34915 ft 529 kts 69°
2026-05-06 03:09 37.89172 -80.71325 34227 ft 511 kts 69°
2026-05-06 03:09 37.90303 -80.67121 33443 ft 498 kts 69°
2026-05-06 03:10 37.91404 -80.63015 32610 ft 488 kts 69°
2026-05-06 03:10 37.92487 -80.58966 31844 ft 480 kts 69°
2026-05-06 03:10 37.93549 -80.54991 31074 ft 474 kts 69°
2026-05-06 03:10 37.94599 -80.51060 30317 ft 469 kts 69°
2026-05-06 03:11 37.95638 -80.47163 29521 ft 464 kts 69°
2026-05-06 03:11 37.96667 -80.43309 28694 ft 460 kts 69°
2026-05-06 03:11 37.97683 -80.39495 27866 ft 455 kts 69°
2026-05-06 03:11 37.98686 -80.35723 27341 ft 445 kts 69°
2026-05-06 03:12 37.99655 -80.32066 27110 ft 430 kts 70°
2026-05-06 03:12 38.00587 -80.28531 27033 ft 413 kts 69°
2026-05-06 03:12 38.01729 -80.25305 27000 ft 391 kts 53°
2026-05-06 03:12 38.03474 -80.22819 27006 ft 367 kts 36°
2026-05-06 03:13 38.05364 -80.20790 27000 ft 354 kts 35°
2026-05-06 03:13 38.07210 -80.18811 26997 ft 341 kts 35°
2026-05-06 03:13 38.08997 -80.16907 27005 ft 330 kts 34°
2026-05-06 03:13 38.10726 -80.15075 27011 ft 319 kts 34°
2026-05-06 03:14 38.12414 -80.13316 27018 ft 308 kts 33°
2026-05-06 03:14 38.14044 -80.11624 27030 ft 298 kts 33°
2026-05-06 03:14 38.15627 -80.09978 27040 ft 289 kts 33°
2026-05-06 03:14 38.17150 -80.08387 27040 ft 279 kts 33°
2026-05-06 03:15 38.18624 -80.06838 27045 ft 270 kts 33°
2026-05-06 03:15 38.20041 -80.05338 27046 ft 260 kts 33°
2026-05-06 03:15 38.21394 -80.03889 27040 ft 249 kts 33°
2026-05-06 03:15 38.22722 -80.02460 27001 ft 253 kts 33°
2026-05-06 03:16 38.24078 -80.01012 27047 ft 255 kts 33°
2026-05-06 03:16 38.25440 -79.99553 27092 ft 257 kts 33°
2026-05-06 03:16 38.26816 -79.98081 27109 ft 260 kts 33°
2026-05-06 03:16 38.28176 -79.96632 27119 ft 264 kts 33°
2026-05-06 03:17 38.29526 -79.95197 27125 ft 268 kts 33°
2026-05-06 03:17 38.30917 -79.93728 27129 ft 274 kts 33°
2026-05-06 03:17 38.32404 -79.92162 27121 ft 280 kts 33°
2026-05-06 03:17 38.33920 -79.90573 27121 ft 286 kts 33°
2026-05-06 03:18 38.35480 -79.88952 27123 ft 292 kts 33°
2026-05-06 03:18 38.37074 -79.87303 27121 ft 299 kts 33°
2026-05-06 03:18 38.38713 -79.85615 27135 ft 306 kts 33°
2026-05-06 03:18 38.40364 -79.83921 27129 ft 313 kts 33°
2026-05-06 03:19 38.42084 -79.82166 27123 ft 319 kts 33°
2026-05-06 03:19 38.43789 -79.80298 27108 ft 331 kts 45°
2026-05-06 03:19 38.44992 -79.77749 27157 ft 343 kts 67°
2026-05-06 03:19 38.45740 -79.74828 27166 ft 350 kts 72°
2026-05-06 03:20 38.46823 -79.68646 27149 ft 364 kts 80°
2026-05-06 03:20 38.47193 -79.65422 27147 ft 370 kts 81°
2026-05-06 03:20 38.47517 -79.62289 27006 ft 380 kts 81°
2026-05-06 03:21 38.47918 -79.58917 26527 ft 398 kts 78°
2026-05-06 03:21 38.48559 -79.55410 26083 ft 414 kts 73°
2026-05-06 03:21 38.49363 -79.51803 25655 ft 429 kts 72°
2026-05-06 03:21 38.50208 -79.48093 25244 ft 442 kts 72°
2026-05-06 03:22 38.51028 -79.44253 24847 ft 454 kts 74°
2026-05-06 03:22 38.51799 -79.40291 24428 ft 465 kts 75°
2026-05-06 03:22 38.52540 -79.36405 24035 ft 474 kts 75°
2026-05-06 03:22 38.53329 -79.32291 23608 ft 473 kts 75°
2026-05-06 03:23 38.54100 -79.28264 23086 ft 462 kts 75°
2026-05-06 03:23 38.54800 -79.24725 22577 ft 454 kts 75°
2026-05-06 03:23 38.55558 -79.20866 22016 ft 435 kts 75°
2026-05-06 03:23 38.56278 -79.17199 21425 ft 418 kts 74°
2026-05-06 03:24 38.56983 -79.13653 20838 ft 405 kts 75°
2026-05-06 03:24 38.57644 -79.10248 20257 ft 386 kts 74°
2026-05-06 03:24 38.58288 -79.06950 19686 ft 379 kts 75°
2026-05-06 03:24 38.58912 -79.03709 19165 ft 372 kts 75°
2026-05-06 03:25 38.59508 -79.00501 18611 ft 371 kts 76°
2026-05-06 03:25 38.60054 -78.97285 18072 ft 371 kts 76°
2026-05-06 03:25 38.60595 -78.94068 17507 ft 369 kts 77°
2026-05-06 03:25 38.61086 -78.91104 17194 ft 362 kts 77°
2026-05-06 03:26 38.61605 -78.88003 17036 ft 351 kts 77°
2026-05-06 03:26 38.62111 -78.85011 16953 ft 338 kts 76°
2026-05-06 03:26 38.62616 -78.82134 16903 ft 326 kts 75°
2026-05-06 03:26 38.63167 -78.79378 16883 ft 314 kts 72°
2026-05-06 03:27 38.63807 -78.76695 16491 ft 317 kts 70°
2026-05-06 03:27 38.64495 -78.74005 16195 ft 318 kts 71°
2026-05-06 03:27 38.65175 -78.71305 15706 ft 320 kts 71°
2026-05-06 03:27 38.65831 -78.68586 15342 ft 321 kts 71°
2026-05-06 03:28 38.66479 -78.65847 14982 ft 322 kts 70°
2026-05-06 03:28 38.67133 -78.63102 14626 ft 323 kts 70°
2026-05-06 03:28 38.67788 -78.60352 14299 ft 323 kts 70°
2026-05-06 03:28 38.68411 -78.57706 14204 ft 315 kts 70°
2026-05-06 03:29 38.69022 -78.55127 13922 ft 315 kts 70°
2026-05-06 03:29 38.69657 -78.52449 13593 ft 314 kts 70°
2026-05-06 03:29 38.70294 -78.49763 13215 ft 315 kts 70°
2026-05-06 03:29 38.70936 -78.47070 12743 ft 319 kts 70°
2026-05-06 03:30 38.71586 -78.44328 12196 ft 325 kts 70°
2026-05-06 03:30 38.72248 -78.41547 11660 ft 329 kts 71°
2026-05-06 03:30 38.72907 -78.38772 11252 ft 327 kts 70°
2026-05-06 03:30 38.73928 -78.36257 11066 ft 311 kts 47°
2026-05-06 03:31 38.75326 -78.34224 10996 ft 298 kts 41°
2026-05-06 03:31 38.76768 -78.32398 10960 ft 286 kts 39°
2026-05-06 03:31 38.78174 -78.30654 10923 ft 277 kts 39°
2026-05-06 03:31 38.79498 -78.28916 10884 ft 269 kts 41°
2026-05-06 03:32 38.80731 -78.27208 10470 ft 279 kts 43°
2026-05-06 03:32 38.82053 -78.25364 10154 ft 281 kts 43°
2026-05-06 03:32 38.83380 -78.23521 9870 ft 281 kts 43°
2026-05-06 03:32 38.84609 -78.21815 9603 ft 281 kts 43°
2026-05-06 03:33 38.85836 -78.19915 9291 ft 286 kts 58°
2026-05-06 03:33 38.86507 -78.17513 8986 ft 287 kts 75°
2026-05-06 03:33 38.86965 -78.15023 8703 ft 287 kts 76°
2026-05-06 03:33 38.87445 -78.12540 8414 ft 286 kts 73°
2026-05-06 03:34 38.88009 -78.10100 8139 ft 285 kts 71°
2026-05-06 03:34 38.88633 -78.07697 7832 ft 283 kts 70°
2026-05-06 03:34 38.89264 -78.05295 7537 ft 283 kts 70°
2026-05-06 03:34 38.89883 -78.02905 7249 ft 282 kts 71°
2026-05-06 03:35 38.90498 -78.00520 6890 ft 283 kts 71°
2026-05-06 03:35 38.91101 -77.98113 6530 ft 283 kts 71°
2026-05-06 03:35 38.91697 -77.95736 6198 ft 282 kts 72°
2026-05-06 03:35 38.92286 -77.93373 6032 ft 273 kts 72°
2026-05-06 03:36 38.92850 -77.91101 5946 ft 261 kts 71°
2026-05-06 03:36 38.93391 -77.88931 5908 ft 249 kts 71°
2026-05-06 03:36 38.93886 -77.86946 5893 ft 238 kts 71°
2026-05-06 03:36 38.94359 -77.85037 5895 ft 227 kts 72°
2026-05-06 03:37 38.94826 -77.83107 5880 ft 235 kts 71°
2026-05-06 03:37 38.95338 -77.80992 5934 ft 260 kts 71°
2026-05-06 03:37 38.95907 -77.78677 5962 ft 283 kts 71°
2026-05-06 03:37 38.96515 -77.76175 5973 ft 303 kts 75°
2026-05-06 03:38 38.96599 -77.73408 5976 ft 319 kts 98°
2026-05-06 03:38 38.96229 -77.70619 5978 ft 315 kts 103°
2026-05-06 03:38 38.95811 -77.67867 5966 ft 313 kts 103°
2026-05-06 03:38 38.95457 -77.65116 5929 ft 312 kts 94°
2026-05-06 03:39 38.95870 -77.62418 5900 ft 309 kts 62°
2026-05-06 03:39 38.97201 -77.60347 5926 ft 298 kts 32°
2026-05-06 03:39 38.98942 -77.58937 5937 ft 294 kts 25°
2026-05-06 03:39 39.00724 -77.57679 5938 ft 291 kts 21°
2026-05-06 03:40 39.02634 -77.57110 5939 ft 278 kts 355°
2026-05-06 03:40 39.04557 -77.57171 5945 ft 276 kts 351°
2026-05-06 03:40 39.06469 -77.57304 5937 ft 275 kts 351°
2026-05-06 03:40 39.08268 -77.57427 5935 ft 275 kts 352°
2026-05-06 03:41 39.10233 -77.57513 5652 ft 286 kts 353°
2026-05-06 03:41 39.12248 -77.57545 5168 ft 301 kts 355°
2026-05-06 03:41 39.14375 -77.57548 4705 ft 309 kts 355°
2026-05-06 03:41 39.16502 -77.57551 4342 ft 297 kts 355°
2026-05-06 03:42 39.18448 -77.57549 4151 ft 265 kts 355°
2026-05-06 03:42 39.20200 -77.57519 4044 ft 240 kts 355°
2026-05-06 03:42 39.21794 -77.57505 3973 ft 219 kts 353°
2026-05-06 03:42 39.23258 -77.57387 3908 ft 209 kts 11°
2026-05-06 03:43 39.24377 -77.56268 3858 ft 205 kts 58°
2026-05-06 03:43 39.24855 -77.54570 3874 ft 198 kts 74°
2026-05-06 03:43 39.25161 -77.52836 3900 ft 201 kts 79°
2026-05-06 03:43 39.25404 -77.51167 3907 ft 209 kts 81°
2026-05-06 03:44 39.25649 -77.49278 3925 ft 216 kts 82°
2026-05-06 03:44 39.25478 -77.47373 3924 ft 217 kts 119°
2026-05-06 03:44 39.24801 -77.45609 3957 ft 221 kts 122°
2026-05-06 03:44 39.23961 -77.43942 3950 ft 221 kts 142°
2026-05-06 03:45 39.22643 -77.43096 3946 ft 209 kts 179°
2026-05-06 03:45 39.21689 -77.43081 3956 ft 206 kts 189°
2026-05-06 03:45 39.19874 -77.43173 3986 ft 181 kts 190°
2026-05-06 03:45 39.18682 -77.43221 3947 ft 162 kts 191°
2026-05-06 03:46 39.17605 -77.43271 3901 ft 147 kts 191°
2026-05-06 03:46 39.16634 -77.43311 3865 ft 133 kts 192°
2026-05-06 03:46 39.15762 -77.43331 3796 ft 119 kts 192°
2026-05-06 03:46 39.14914 -77.43358 3628 ft 133 kts 192°
2026-05-06 03:47 39.14297 -77.43375 3779 ft 135 kts 191°
2026-05-06 03:47 39.13297 -77.43387 3902 ft 153 kts 189°
2026-05-06 03:47 39.12147 -77.43386 3834 ft 179 kts 188°
2026-05-06 03:47 39.10907 -77.43377 3534 ft 178 kts 188°
2026-05-06 03:48 39.09701 -77.43372 3083 ft 167 kts 188°
2026-05-06 03:48 39.08583 -77.43381 2769 ft 155 kts 189°
2026-05-06 03:48 39.07488 -77.43406 2606 ft 159 kts 189°
2026-05-06 03:48 39.06411 -77.43427 2427 ft 163 kts 188°
2026-05-06 03:49 39.05259 -77.43461 2208 ft 167 kts 187°
2026-05-06 03:49 39.04116 -77.43470 1972 ft 161 kts 187°
2026-05-06 03:49 39.03012 -77.43475 1767 ft 157 kts 187°
2026-05-06 03:49 39.01952 -77.43489 1560 ft 150 kts 188°
2026-05-06 03:50 39.00942 -77.43518 1358 ft 141 kts 187°
2026-05-06 03:50 38.99977 -77.43544 1193 ft 137 kts 186°
2026-05-06 03:50 38.99029 -77.43567 1016 ft 132 kts 184°
2026-05-06 03:50 38.98131 -77.43583 828 ft 129 kts 181°
2026-05-06 03:51 38.97257 -77.43585 689 ft 123 kts 181°
2026-05-06 03:51 38.96406 -77.43596 541 ft 121 kts 181°
2026-05-06 03:51 38.95647 -77.43602 361 ft 93 kts 181°
2026-05-06 03:51 38.95253 -77.43622 285 ft 26 kts 183°
2026-05-06 03:52 38.95126 -77.43608 286 ft 13 kts 183°
2026-05-06 03:52 38.95046 -77.43614 285 ft 15 kts 184°
2026-05-06 03:52 38.94914 -77.43613 284 ft 23 kts 172°
2026-05-06 03:52 38.94738 -77.43614 287 ft 28 kts 174°
2026-05-06 03:53 38.94531 -77.43631 293 ft 32 kts 185°
2026-05-06 03:53 38.94326 -77.43756 296 ft 34 kts 207°
2026-05-06 03:53 38.94167 -77.43920 300 ft 24 kts 254°
2026-05-06 03:53 38.94245 -77.43978 298 ft 18 kts
2026-05-06 03:54 38.94396 -77.43983 299 ft 20 kts 332°
2026-05-06 03:54 38.94424 -77.44164 302 ft 25 kts 250°
2026-05-06 03:54 38.94478 -77.44275 302 ft 13 kts
2026-05-06 03:54 38.94484 -77.44275 305 ft 0 kts